Regional Weather Roundup
Issued by NWS Portland, ME

Current Version | Previous Version | Text Only | Print | Product List | Glossary Off
Versions: 1 2 3 4 5 6 7 8 9 10 11 12 13 14 15 16 17 18 19 20 21 22 23 24 25 26 27 28 29 30 31 32 33 34 35 36 37 38 39 40 41 42 43 44 45 46 47 48 49 50
525 ASUS41 KGYX 251510 RWRGYX WEATHER ROUNDUP FOR MAINE AND NEW HAMPSHIRE NATIONAL WEATHER SERVICE GRAY ME 1100 AM EDT SUN JUN 25 2017 MEZ002-005-006-010-012-015-018-020-021-024-026-027-029-251600- MAINE CITY SKY/WX TMP DP RH WIND PRES REMARKS PORTLAND SUNNY 78 52 40 W10 29.90F SANFORD SUNNY 77 53 43 W9 29.92F BAR HARBOR SUNNY 74 54 49 VRB7 29.88S WISCASSET SUNNY 76 55 48 VRB6 29.91S ROCKLAND SUNNY 75 57 53 W9 29.89S FRYEBURG SUNNY 74 53 48 CALM 29.91F LEWISTONAUBURN SUNNY 73 55 53 VRB3 29.90F AUGUSTA SUNNY 73 51 46 W8 29.90F WATERVILLE SUNNY 73 56 54 SW9 29.87F BANGOR MOSUNNY 74 53 48 W8 29.87F GREENVILLE N/A 68 52 56 NW9 29.88S MILLINOCKET SUNNY 71 51 49 W9 29.87S HOULTON MOSUNNY 70 54 56 VRB6 29.82F PRESQUE ISLE MOSUNNY 70 51 51 W9 29.83S FRENCHVILLE SUNNY 69 50 50 SW7 29.81S CARIBOU SUNNY 71 53 52 W6 29.81S $$ NHZ002-005-008-009-011-012-014-251600- NEW HAMPSHIRE CITY SKY/WX TMP DP RH WIND PRES REMARKS PORTSMOUTH MOSUNNY 78 53 41 SW12 29.91F ROCHESTER SUNNY 77 54 44 VRB3 29.92S NASHUA MOSUNNY 78 52 40 NW12 29.94F MANCHESTER SUNNY 77 47 34 NW9 29.92F CONCORD MOSUNNY 77 52 41 W7 29.93F LACONIA MOSUNNY N/A N/A N/A W8 29.93F PLYMOUTH FAIR 73 51 44 NW6 29.92F BERLIN PTSUNNY 68 50 52 VRB5 29.93S WHITEFIELD MOSUNNY 71 53 52 VRB5 29.93F JAFFREY PTSUNNY 74 52 46 VRB7 29.97F KEENE MOSUNNY 74 55 51 VRB3 29.96F LEBANON SUNNY 76 50 40 W9 29.92F MT WASHINGTON FOG 43 43 100 W29 N/A VSB 1/16 $$ VTZ005-007-008-251600- VERMONT CITY SKY/WX TMP DP RH WIND PRES REMARKS ST JOHNSBURY N/A 71 53 52 MISG 29.90F MONTPELIER MOSUNNY 70 50 49 NW8 29.97S BURLINGTON MOSUNNY 72 54 53 VRB5 29.91F $$ MAZ007-012-024-CTZ003-RIZ002-NYZ038-NYZ072-251600- SOUTHERN NEW ENGLAND AND NY CITY SKY/WX TMP DP RH WIND PRES REMARKS BOSTON MOSUNNY 79 50 36 W13 29.94S WORCESTER SUNNY 74 51 44 SW12 29.98F NANTUCKET SUNNY 78 55 44 N7 29.97S PROVIDENCE SUNNY 79 54 41 SW5 29.96F HARTFORD MOSUNNY 78 56 46 W6 29.97S ALBANY PTSUNNY 73 57 57 S6 29.97F NEW YORK CITY PTSUNNY 82 51 34 W8 29.98S $$ ANZ081-ANZ082-ANZ150-NHZ014-MEZ023>029-251600- COASTAL MARINE OBSERVATIONS STATION/POSITION TIME TEMP WIND PRES WAVE AIR SEA DIR/SP/G HT/PER (UTC) (F) (DEG/KT/KT) (MB) (FT/S) MATINICUS ROCK 1400 58 230/ 10/ 10 1012.3R ISLE OF SHOALS 1400 70 270/ 7/ 7 1013.1R JEFFREYS LEDGE 1406 59 N/A 3/ 9 CASHES LEDGE BUO 1350 65 60 1013.0 4/ 8 GEORGES BANK BUO 1350 56 52 1014.1 8/10 $$ .............KEY.............. WCI - WIND CHILL TC - TEMPERATURE IN CELSIUS VSB - VISIBILITY IN MILES HX - HEAT INDEX FAIR- INDICATES FEW OR NO CLOUDS BELOW 12,000 FT, WITH NO SIGNIFICANT WEATHER AND/OR OBSTRUCTIONS TO VISIBILITY.

USA.gov is the U.S. government's official web portal to all federal, state and local government web resources and services.